Location: Unnamed
(50.8592°N, 5.7868°E)
Time: 12:05:40
(UTC+01:00)

ISS - Visible Passes

Search period start: 25 June 2022 00:00
Search period end: 05 July 2022 00:00
Orbit: 414 x 420 km, 51.6° (Epoch: 25 June)

Date Brightness Start Highest point End Pass type
(mag) Time Alt. Az. Time Alt. Az. Time Alt. Az.
30 Jun -2.0 03:07:55 12° SSW 03:10:14 21° SE 03:12:52 10° E visible
01 Jul -1.7 02:21:15 13° SSE 02:22:06 15° SE 02:24:02 10° ESE visible
02 Jul -3.1 03:07:24 14° SW 03:10:02 40° SSE 03:13:14 10° E visible
03 Jul -2.6 02:20:38 23° S 02:21:48 29° SSE 02:24:45 10° E visible
04 Jul -2.1 01:33:48 20° SE 01:33:48 20° SE 01:36:07 10° E visible
04 Jul -3.8 03:06:40 11° WSW 03:09:56 71° SSE 03:13:18 10° ENE visible
